Location: De Platvoet
(52.2667°N, 6.1667°E)
Time: 08:07:43
(UTC+00:00)

Meteor 1-25 Rocket - Pass Details

Date: 15 May 2026
Orbit: 834 x 892 km, 81.2° (Epoch: 5 June)

Event Time Altitude Azimuth Distance (km) Brightness Sun altitude
Rises 20:22:01 0° 348° (NNW) 3,455 8.5 -7.7°
Reaches altitude 10° 20:24:30 10° 351° (N) 2,505 7.6 -7.9°
Maximum altitude 20:30:09 65° 74° (ENE) 931 4.3 -8.5°
Drops below altitude 10° 20:35:40 10° 156° (SSE) 2,454 6.0 -9.1°
Enters shadow 20:35:43 10° 156° (SSE) 2,469 6.0 -9.1°
